Simultaneous Nadir Overpasses (SNOs) Predictions

Prediction of SNOs between METOP-B and NOAA-19 Satellite Orbit:

Table of predicted SNOs for the next 14.0 days since TLE Epoch: 10/5/2018
Index Date (METOP-B) Time (METOP-B) Lat,Lon (METOP-B) SZA (METOP-B ) Date (NOAA-19) Time (NOAA-19) Lat,Lon (NOAA-19) SZA (NOAA-19 ) Distance(km) Time Diff (sec)
1 10/15/2018 06:37:37 -79.02, -85.79 92.04 10/15/2018 06:36:32 -79.02, -89.84 92.26 85.84 65
2 10/15/2018 07:28:25 78.72, 79.56 87.58 10/15/2018 07:27:19 78.74, 79.54 87.59 2.09 66
3 10/15/2018 08:19:07 -78.71,-113.17 92.42 10/15/2018 08:18:24 -78.72,-113.07 92.42 2.20 43
4 10/15/2018 09:09:47 78.71, 54.12 87.59 10/15/2018 09:09:19 78.71, 54.30 87.59 3.88 28
5 10/15/2018 10:00:29 -78.70,-138.61 92.41 10/15/2018 10:00:25 -78.72,-138.56 92.39 2.37 4
6 10/15/2018 10:51:09 78.69, 28.68 87.59 10/15/2018 10:51:20 78.70, 28.80 87.62 3.17 11
7 10/15/2018 11:41:51 -78.68,-164.05 92.41 10/15/2018 11:42:26 -78.72,-164.05 92.37 3.82 35
8 10/15/2018 12:32:30 78.71, 3.47 87.65 10/15/2018 12:33:21 78.70, 3.31 87.64 3.63 51
9 10/15/2018 13:23:12 -78.70, 170.74 92.36 10/15/2018 13:24:26 -78.68, 170.70 92.36 2.72 74




NCC Satellite Simultaneous Nadir Overpasses (SNOs) Prediction Service
